Washington, NC

1:03 PM EST on February 27, 2017 (GMT -0500)
Warren

Weather History for KOCW - March, 2014

Change the Weather History Date:

Monday, March 3, 2014

  Actual Average (KPGV) Record (KPGV)
Temperature  
Mean Temperature 41 °F -  
Max Temperature 58 °F 62 °F 87 °F (1976)
Min Temperature 24 °F 39 °F 17 °F (2009)
Degree Days  
Heating Degree Days 24    
Moisture  
Dew Point 36 °F    
Average Humidity 80    
Maximum Humidity 87    
Minimum Humidity 64    
Precipitation  
Precipitation 0.13 in - - ()
Sea Level Pressure  
Sea Level Pressure 30.03 in    
Wind  
Wind Speed 9 mph (NNE)    
Max Wind Speed 18 mph    
Max Gust Speed 25 mph    
Visibility 7 miles    
Events      
Averages and records for this station are not official NWS values.
T = Trace of Precipitation, MM = Missing Value Source: NWS Daily Summary

Daily Weather History Graph

Daily Weather History Graph

Search for Another Location

Airport or City:

Trip Planner

Search our weather history database for the weather conditions in past years. The results will help you decide how hot, cold, wet, or windy it might be!

Date:

Astronomy

Mar. 03, 2014 Rise Set
Actual Time 6:35 AM EST 6:05 PM EST
Civil Twilight 6:09 AM EST 6:30 PM EST
Nautical Twilight 5:40 AM EST 7:00 PM EST
Astronomical Twilight 5:10 AM EST 7:29 PM EST
Moon 7:48 AM EST (3/3) 8:58 PM EST (3/3)
Length of Visible Light 12h 20m
Length of Day
11h 29m
Waxing Crescent, 8% of the Moon is Illuminated
Mar 3
Waxing Crescent
Mar 8
First Quarter
Mar 16
Full
Mar 23
Last Quarter
Mar 30
New

Hourly Weather History & Observations

Time (EST) Temp. Windchill Dew Point Humidity Pressure Visibility Wind Dir Wind Speed Gust Speed Precip Events Conditions
12:15 AM 58.1 °F - 46.0 °F 64% 29.94 in 10.0 mi SSW 5.8 mph - N/A   Clear
12:35 AM 58.1 °F - 46.6 °F 65% 29.94 in 10.0 mi SSW 8.1 mph - N/A   Clear
12:55 AM 58.1 °F - 46.4 °F 65% 29.94 in 10.0 mi SSW 5.8 mph - N/A   Clear
1:15 AM 58.1 °F - 46.4 °F 65% 29.93 in 10.0 mi SW 8.1 mph - N/A   Clear
1:35 AM 57.9 °F - 47.3 °F 68% 29.93 in 10.0 mi SW 6.9 mph - N/A   Clear
1:55 AM 58.1 °F - 47.3 °F 67% 29.91 in 10.0 mi SSW 6.9 mph - N/A   Clear
2:15 AM 55.4 °F - 45.1 °F 68% 29.91 in 10.0 mi SSW 6.9 mph - N/A   Clear
2:35 AM 55.4 °F - 45.5 °F 69% 29.90 in 10.0 mi SSW 6.9 mph - N/A   Clear
2:55 AM 55.4 °F - 45.5 °F 69% 29.89 in 10.0 mi SW 5.8 mph - N/A   Clear
3:15 AM 54.9 °F - 45.3 °F 70% 29.88 in 10.0 mi SSW 6.9 mph - N/A   Clear
3:35 AM 54.7 °F - 45.3 °F 71% 29.87 in 10.0 mi SSW 6.9 mph - N/A   Clear
3:55 AM 55.4 °F - 45.7 °F 70% 29.87 in 10.0 mi SSW 5.8 mph - N/A   Clear
4:15 AM 55.4 °F - 45.9 °F 70% 29.87 in 10.0 mi SSW 6.9 mph - N/A   Clear
4:35 AM 54.9 °F - 45.7 °F 71% 29.87 in 10.0 mi SW 5.8 mph - N/A   Clear
4:55 AM 55.0 °F - 45.9 °F 71% 29.87 in 10.0 mi SSW 4.6 mph - N/A   Clear
5:15 AM 54.0 °F - 45.1 °F 72% 29.88 in 10.0 mi SSW 6.9 mph - N/A   Clear
5:35 AM 54.3 °F - 45.5 °F 72% 29.88 in 10.0 mi SSW 4.6 mph - N/A   Clear
5:55 AM 55.0 °F - 46.0 °F 72% 29.89 in 10.0 mi SSW 4.6 mph - N/A   Clear
6:15 AM 54.5 °F - 45.7 °F 72% 29.89 in 10.0 mi SSW 5.8 mph - N/A   Clear
6:35 AM 54.0 °F - 45.1 °F 72% 29.89 in 10.0 mi SW 3.5 mph - N/A   Clear
6:55 AM 52.9 °F - 44.4 °F 73% 29.90 in 10.0 mi Calm Calm - N/A   Clear
7:15 AM 52.7 °F - 46.4 °F 79% 29.92 in 10.0 mi North 6.9 mph - N/A   Clear
7:35 AM 52.9 °F - 45.7 °F 77% 29.93 in 10.0 mi NW 4.6 mph - N/A   Clear
7:55 AM 55.4 °F - 46.9 °F 73% 29.94 in 10.0 mi NNE 6.9 mph - N/A   Clear
8:15 AM 58.1 °F - 49.1 °F 72% 29.94 in 10.0 mi NE 4.6 mph - N/A   Clear
8:35 AM 57.4 °F - 48.6 °F 72% 29.94 in 10.0 mi NE 16.1 mph - N/A   Clear
8:55 AM 50.0 °F - 43.5 °F 78% 29.96 in 10.0 mi NNE 18.4 mph - N/A   Clear
9:15 AM 46.4 °F 40.7 °F 40.8 °F 81% 29.97 in 5.0 mi ENE 12.7 mph 19.6 mph N/A   Clear
9:35 AM 45.5 °F 39.6 °F 40.3 °F 82% 29.98 in 4.0 mi NE 12.7 mph - N/A   Clear
9:55 AM 45.1 °F 39.5 °F 40.1 °F 82% 29.98 in 4.0 mi NE 11.5 mph 23.0 mph N/A   Clear
10:15 AM 45.1 °F 39.9 °F 40.1 °F 82% 29.98 in 4.0 mi ENE 10.4 mph 16.1 mph N/A   Clear
10:35 AM 45.1 °F 39.1 °F 40.1 °F 82% 29.99 in 4.0 mi ENE 12.7 mph 18.4 mph N/A   Clear
10:55 AM 43.9 °F 36.2 °F 39.4 °F 84% 29.99 in 3.0 mi ENE 17.3 mph 20.7 mph N/A   Unknown
11:15 AM 42.8 °F 36.6 °F 38.5 °F 85% 30.00 in 2.0 mi NE 11.5 mph 20.7 mph N/A   Unknown
11:35 AM 42.8 °F 38.0 °F 38.5 °F 85% 30.01 in 2.5 mi NE 8.1 mph 20.7 mph N/A   Unknown
11:55 AM 42.3 °F 36.3 °F 38.3 °F 86% 30.02 in 3.0 mi NE 10.4 mph 16.1 mph N/A   Unknown
12:15 PM 40.5 °F 34.6 °F 36.5 °F 86% 30.01 in 4.0 mi NE 9.2 mph 18.4 mph N/A   Scattered Clouds
12:35 PM 40.1 °F 31.3 °F 36.1 °F 86% 30.01 in 7.0 mi ENE 17.3 mph 21.9 mph N/A   Mostly Cloudy
12:55 PM 38.8 °F 31.6 °F 34.9 °F 86% 29.97 in 4.0 mi NE 11.5 mph 23.0 mph 0.01 in   Overcast
1:15 PM 37.6 °F 30.0 °F 33.8 °F 86% 29.98 in 4.0 mi NE 11.5 mph 17.3 mph 0.03 in   Overcast
1:35 PM 37.6 °F 29.6 °F 33.8 °F 86% 29.98 in 4.0 mi NE 12.7 mph - 0.05 in   Overcast
1:55 PM 37.6 °F 30.0 °F 33.8 °F 86% 30.02 in 5.0 mi NNE 11.5 mph 17.3 mph 0.07 in   Overcast
2:15 PM 37.6 °F 30.0 °F 33.8 °F 86% 30.01 in 3.0 mi NE 11.5 mph 16.1 mph 0.04 in   Overcast
2:35 PM 37.6 °F 31.0 °F 33.8 °F 86% 30.02 in 10.0 mi NE 9.2 mph 18.4 mph 0.04 in   Overcast
2:55 PM 37.4 °F 29.8 °F 33.6 °F 86% 30.03 in 10.0 mi NNE 11.5 mph 20.7 mph 0.04 in   Overcast
3:15 PM 35.1 °F 25.9 °F 31.5 °F 87% 30.03 in 10.0 mi NNE 13.8 mph 19.6 mph N/A   Overcast
3:35 PM 32.9 °F 22.4 °F 29.3 °F 87% 30.05 in 5.0 mi NNE 16.1 mph 25.3 mph 0.01 in   Overcast
3:55 PM 32.5 °F 21.5 °F 29.1 °F 87% 30.06 in 2.5 mi NNE 17.3 mph 23.0 mph 0.01 in   Overcast
4:15 PM 32.5 °F 23.2 °F 29.1 °F 87% 30.08 in 3.0 mi NNE 12.7 mph 19.6 mph N/A   Overcast
4:35 PM 32.5 °F 23.7 °F 29.1 °F 87% 30.08 in 7.0 mi NNE 11.5 mph 19.6 mph N/A   Overcast
4:55 PM 32.5 °F 23.2 °F 29.1 °F 87% 30.10 in 10.0 mi North 12.7 mph 23.0 mph N/A   Overcast
5:15 PM 32.5 °F 23.2 °F 29.1 °F 87% 30.12 in 7.0 mi NNE 12.7 mph 19.6 mph N/A   Overcast
5:35 PM 30.2 °F 19.8 °F 26.4 °F 86% 30.12 in 7.0 mi NNE 13.8 mph 21.9 mph N/A   Overcast
5:55 PM 30.2 °F 20.8 °F 26.4 °F 86% 30.14 in 10.0 mi NNE 11.5 mph - N/A   Overcast
6:15 PM 30.2 °F 20.2 °F 26.4 °F 86% 30.14 in 5.0 mi NNE 12.7 mph - N/A   Overcast
6:35 PM 30.2 °F 19.3 °F 26.4 °F 86% 30.14 in 4.0 mi North 15.0 mph 19.6 mph N/A   Overcast
6:55 PM 30.2 °F 19.8 °F 26.4 °F 86% 30.15 in 4.0 mi NNE 13.8 mph 19.6 mph N/A   Overcast
7:15 PM 30.2 °F 22.6 °F 26.4 °F 86% 30.15 in 5.0 mi NNE 8.1 mph 16.1 mph N/A   Overcast
7:35 PM 29.5 °F 18.0 °F 25.7 °F 86% 30.17 in 1.5 mi North 16.1 mph - N/A   Overcast
7:55 PM 27.9 °F 17.3 °F 23.9 °F 85% 30.21 in 3.0 mi North 12.7 mph - N/A   Overcast
8:15 PM 27.5 °F 18.0 °F 23.9 °F 86% 30.22 in 1.8 mi NNW 10.4 mph 17.3 mph N/A   Overcast
8:35 PM 26.4 °F 16.0 °F 22.8 °F 86% 30.21 in 2.5 mi North 11.5 mph 19.6 mph N/A   Overcast
8:55 PM 26.4 °F 15.0 °F 22.8 °F 86% 30.21 in 4.0 mi North 13.8 mph 21.9 mph N/A   Overcast
9:15 PM 25.7 °F 13.5 °F 22.1 °F 86% 30.23 in 4.0 mi North 15.0 mph 19.6 mph N/A   Overcast
9:35 PM 25.7 °F 13.5 °F 22.1 °F 86% 30.23 in 7.0 mi North 15.0 mph 21.9 mph N/A   Overcast
9:55 PM 25.3 °F 14.1 °F 21.6 °F 86% 30.25 in 5.0 mi North 12.7 mph 21.9 mph N/A   Overcast
10:15 PM 25.2 °F 14.4 °F 21.6 °F 86% 30.25 in 10.0 mi North 11.5 mph - N/A   Overcast
10:35 PM 25.0 °F 14.2 °F 21.2 °F 86% 30.26 in 10.0 mi North 11.5 mph 21.9 mph N/A   Overcast
10:55 PM 24.8 °F 15.3 °F 21.0 °F 86% 30.26 in 10.0 mi NNE 9.2 mph 17.3 mph N/A   Overcast
11:15 PM 24.8 °F 14.6 °F 21.2 °F 86% 30.26 in 10.0 mi North 10.4 mph 18.4 mph N/A   Overcast
11:35 PM 25.2 °F 15.1 °F 21.6 °F 86% 30.28 in 10.0 mi North 10.4 mph 18.4 mph N/A   Overcast
11:55 PM 24.6 °F 12.7 °F 21.0 °F 86% 30.27 in 10.0 mi North 13.8 mph - N/A   Overcast